Regional Weather Roundup
Issued by NWS Northern Indiana

Home | Current Version | Previous Version | Graphics & Text | Print | Product List | Glossary On
Versions: 1 2 3 4 5 6 7 8 9 10 11 12 13 14 15 16 17 18 19 20 21 22 23 24 25 26 27 28 29 30 31 32 33 34 35 36 37 38 39 40 41 42 43 44 45 46 47 48 49 50
000
ASUS43 KIWX 030800
RWRIWX

KIWX WEATHER ROUNDUP
NATIONAL WEATHER SERVICE NORTHERN INDIANA
400 AM EDT MON AUG 03 2015

NOTE: "FAIR" INDICATES FEW OR NO CLOUDS BELOW 12,000 FEET WITH NO
SIGNIFICANT WEATHER AND/OR OBSTRUCTIONS TO VISIBILITY.

* THESE STATIONS ARE NOT UNDER NWS QUALITY CONTROL. THEY ALSO MAY NOT
  REPORT WEATHER SUCH AS PRECIPITATION OR FOG.

INZ001>027-030900-
NORTHERN INDIANA

CITY           SKY/WX    TMP DP  RH WIND       PRES   REMARKS
SOUTH BEND     CLOUDY    66  63  90 SW5       29.77R
GOSHEN         CLOUDY    64  61  90 S5        29.76R
MONTICELLO*    CLOUDY    65  65 100 CALM      29.76F
ANGOLA*        CLEAR     63  61  94 CALM      29.76R
FORT WAYNE     CLOUDY    64  62  93 SW6       29.78F
PERU/GRISSOM   CLOUDY    64  63  94 S16       29.79F THUNDER

$$
INZ028>050-030900-
CENTRAL INDIANA

CITY           SKY/WX    TMP DP  RH WIND       PRES   REMARKS
LAFAYETTE      CLOUDY    67  64  90 E12       29.78R
KOKOMO*        CLOUDY    64  61  88 NW8G21    29.81F THUNDER
MUNCIE*        TSTM      61  61 100 N7        29.87F VSB 1
INDIANAPOLIS   CLOUDY    75  66  73 SW13      29.78F

$$
MIZ043>046-050>051-056>058-064>065-071>073-077>080-030900-
SOUTHWEST LOWER MICHIGAN

CITY           SKY/WX    TMP DP  RH WIND       PRES   REMARKS
BATTLE CREEK   CLOUDY    65  62  90 SW7       29.74F
BENTON HARBOR  MOCLDY    66  63  90 CALM      29.74S
COLDWATER*     CLOUDY    62  61  96 SW6       29.75S
HILLSDALE*     CLOUDY    63  63 100 S7        29.75F
HOLLAND        MOCLDY    65  63  93 CALM      29.73S
GRAND RAPIDS   CLOUDY    64  64 100 W5        29.73R
KALAMAZOO      CLOUDY    65  62  90 W5        29.74F
STURGIS*       CLOUDY    63  63 100 S3        29.75R
THREE RIVERS*  MOCLDY    63  62  96 S5        29.75S

$$
OHZ001>008-015>018-024>025-030900-
NORTHWEST OHIO

CITY           SKY/WX    TMP DP  RH WIND       PRES   REMARKS
DEFIANCE       TSTM      64  61  90 S21G30    29.73F
FINDLAY        RAIN      64  62  93 S13       29.89F
TOLEDO EXPRESS RAIN      62  62 100 S14G22    29.74F FOG
TOLEDO METCALF RAIN      63  60  90 S22G28    29.80F
LIMA           LGT RAIN  63  61  93 SE5       29.93R

$$
AND FOR LAKE MICHIGAN COASTAL AND OPEN LAKE BUOY OBSERVATIONS

STATION/POSITION TEMP    WIND        PRES    VSBY  WAVE
                 AIR SEA DIR/SP/G                  HT/PER
                 (F)     (DEG/KT/KT) (MB)    (MI)  (FT/S)
CALUMET HARBOR    68     250/  3/  5   N/A
MICHIGAN CITY     70     250/ 13/ 14   N/A
BURNS HARBOR      71     280/  9/ 10 1007.8S
SAINT JOSEPH      71     280/  6/ 10 1007.5F
4 MI NW BRIDGMAN  71 74  320/  8/ 10   N/A           5/ 5
MICHIGAN CITY     71 73  300/ 10/ 14   N/A           4/ 4

$$
&&



USA.gov is the U.S. government's official web portal to all federal, state and local government web resources and services.